Data supplied by UK-AIR on 5/4/2008
All Data GMT hour ending 
Status: R =Ratified P=Provisional,P*=As supplied
,,London Hillingdon,,,,,,,,,,,,,,,,,,,,,,,
Date,time,"Carbon monoxide",status,unit,"PM10 particulate matter (Hourly measured)",status,unit,"Nitric oxide",status,unit,"Nitrogen dioxide",status,unit,"Nitrogen oxides as nitrogen dioxide",status,unit,"Ozone",status,unit,"Sulphur dioxide",status,unit
 
01-01-2000,01:00,,,,269,R,ugm-3 (GRAV EQ),,,,,,,,,,,,,,,
01-01-2000,02:00,0.3,R,mgm-3,78,R,ugm-3 (GRAV EQ),71,R,ugm-3,25,R,ugm-3,134,R,ugm-3,2,R,ugm-3,5,R,ugm-3
01-01-2000,03:00,0.5,R,mgm-3,61,R,ugm-3 (GRAV EQ),66,R,ugm-3,27,R,ugm-3,128,R,ugm-3,4,R,ugm-3,5,R,ugm-3
01-01-2000,04:00,0.2,R,mgm-3,27,R,ugm-3 (GRAV EQ),35,R,ugm-3,27,R,ugm-3,80,R,ugm-3,8,R,ugm-3,5,R,ugm-3
01-01-2000,05:00,0.0,R,mgm-3,23,R,ugm-3 (GRAV EQ),9,R,ugm-3,11,R,ugm-3,25,R,ugm-3,26,R,ugm-3,5,R,ugm-3
01-01-2000,06:00,0.1,R,mgm-3,22,R,ugm-3 (GRAV EQ),16,R,ugm-3,13,R,ugm-3,38,R,ugm-3,20,R,ugm-3,3,R,ugm-3
01-01-2000,07:00,0.2,R,mgm-3,26,R,ugm-3 (GRAV EQ),34,R,ugm-3,23,R,ugm-3,74,R,ugm-3,6,R,ugm-3,5,R,ugm-3
01-01-2000,08:00,0.6,R,mgm-3,21,R,ugm-3 (GRAV EQ),104,R,ugm-3,27,R,ugm-3,185,R,ugm-3,2,R,ugm-3,5,R,ugm-3
01-01-2000,09:00,0.6,R,mgm-3,14,R,ugm-3 (GRAV EQ),99,R,ugm-3,27,R,ugm-3,178,R,ugm-3,2,R,ugm-3,5,R,ugm-3
01-01-2000,10:00,0.9,R,mgm-3,17,R,ugm-3 (GRAV EQ),174,R,ugm-3,34,R,ugm-3,300,R,ugm-3,4,R,ugm-3,5,R,ugm-3
01-01-2000,11:00,0.7,R,mgm-3,25,R,ugm-3 (GRAV EQ),54,R,ugm-3,27,R,ugm-3,109,R,ugm-3,10,R,ugm-3,5,R,ugm-3
01-01-2000,12:00,0.7,R,mgm-3,27,R,ugm-3 (GRAV EQ),103,R,ugm-3,29,R,ugm-3,185,R,ugm-3,4,R,ugm-3,8,R,ugm-3
01-01-2000,13:00,0.3,R,mgm-3,20,R,ugm-3 (GRAV EQ),26,R,ugm-3,27,R,ugm-3,67,R,ugm-3,12,R,ugm-3,11,R,ugm-3
01-01-2000,14:00,0.5,R,mgm-3,18,R,ugm-3 (GRAV EQ),76,R,ugm-3,38,R,ugm-3,155,R,ugm-3,8,R,ugm-3,11,R,ugm-3
01-01-2000,15:00,0.7,R,mgm-3,23,R,ugm-3 (GRAV EQ),126,R,ugm-3,46,R,ugm-3,239,R,ugm-3,6,R,ugm-3,13,R,ugm-3
01-01-2000,16:00,0.6,R,mgm-3,18,R,ugm-3 (GRAV EQ),114,R,ugm-3,46,R,ugm-3,220,R,ugm-3,6,R,ugm-3,11,R,ugm-3
01-01-2000,17:00,0.9,R,mgm-3,20,R,ugm-3 (GRAV EQ),198,R,ugm-3,55,R,ugm-3,357,R,ugm-3,4,R,ugm-3,8,R,ugm-3
01-01-2000,18:00,1.5,R,mgm-3,31,R,ugm-3 (GRAV EQ),294,R,ugm-3,69,R,ugm-3,518,R,ugm-3,4,R,ugm-3,11,R,ugm-3
01-01-2000,19:00,1.3,R,mgm-3,38,R,ugm-3 (GRAV EQ),199,R,ugm-3,53,R,ugm-3,357,R,ugm-3,4,R,ugm-3,11,R,ugm-3
01-01-2000,20:00,1.0,R,mgm-3,38,R,ugm-3 (GRAV EQ),170,R,ugm-3,44,R,ugm-3,304,R,ugm-3,4,R,ugm-3,11,R,ugm-3
01-01-2000,21:00,1.3,R,mgm-3,36,R,ugm-3 (GRAV EQ),193,R,ugm-3,48,R,ugm-3,342,R,ugm-3,4,R,ugm-3,8,R,ugm-3
01-01-2000,22:00,1.2,R,mgm-3,34,R,ugm-3 (GRAV EQ),163,R,ugm-3,53,R,ugm-3,302,R,ugm-3,4,R,ugm-3,11,R,ugm-3
01-01-2000,23:00,0.7,R,mgm-3,27,R,ugm-3 (GRAV EQ),89,R,ugm-3,40,R,ugm-3,176,R,ugm-3,4,R,ugm-3,8,R,ugm-3
01-01-2000,24:00,0.5,R,mgm-3,29,R,ugm-3 (GRAV EQ),61,R,ugm-3,31,R,ugm-3,124,R,ugm-3,2,R,ugm-3,8,R,ugm-3
02-01-2000,01:00,0.6,R,mgm-3,23,R,ugm-3 (GRAV EQ),44,R,ugm-3,29,R,ugm-3,96,R,ugm-3,2,R,ugm-3,11,R,ugm-3
02-01-2000,02:00,0.3,R,mgm-3,17,R,ugm-3 (GRAV EQ),25,R,ugm-3,23,R,ugm-3,61,R,ugm-3,4,R,ugm-3,8,R,ugm-3
02-01-2000,03:00,0.3,R,mgm-3,17,R,ugm-3 (GRAV EQ),14,R,ugm-3,17,R,ugm-3,38,R,ugm-3,6,R,ugm-3,8,R,ugm-3
02-01-2000,04:00,0.2,R,mgm-3,9,R,ugm-3 (GRAV EQ),15,R,ugm-3,17,R,ugm-3,40,R,ugm-3,6,R,ugm-3,8,R,ugm-3
02-01-2000,05:00,0.2,R,mgm-3,8,R,ugm-3 (GRAV EQ),21,R,ugm-3,25,R,ugm-3,57,R,ugm-3,4,R,ugm-3,8,R,ugm-3
02-01-2000,06:00,0.5,R,mgm-3,9,R,ugm-3 (GRAV EQ),76,R,ugm-3,31,R,ugm-3,147,R,ugm-3,2,R,ugm-3,8,R,ugm-3
02-01-2000,07:00,0.3,R,mgm-3,13,R,ugm-3 (GRAV EQ),73,R,ugm-3,32,R,ugm-3,143,R,ugm-3,4,R,ugm-3,8,R,ugm-3
02-01-2000,08:00,0.5,R,mgm-3,10,R,ugm-3 (GRAV EQ),70,R,ugm-3,38,R,ugm-3,145,R,ugm-3,2,R,ugm-3,8,R,ugm-3
02-01-2000,09:00,0.5,R,mgm-3,12,R,ugm-3 (GRAV EQ),81,R,ugm-3,44,R,ugm-3,168,R,ugm-3,2,R,ugm-3,8,R,ugm-3
02-01-2000,10:00,0.5,R,mgm-3,10,R,ugm-3 (GRAV EQ),78,R,ugm-3,44,R,ugm-3,162,R,ugm-3,6,R,ugm-3,8,R,ugm-3
02-01-2000,11:00,0.3,R,mgm-3,16,R,ugm-3 (GRAV EQ),66,R,ugm-3,48,R,ugm-3,149,R,ugm-3,12,R,ugm-3,8,R,ugm-3
02-01-2000,12:00,0.8,R,mgm-3,25,R,ugm-3 (GRAV EQ),153,R,ugm-3,61,R,ugm-3,294,R,ugm-3,4,R,ugm-3,11,R,ugm-3
02-01-2000,13:00,0.7,R,mgm-3,22,R,ugm-3 (GRAV EQ),143,R,ugm-3,59,R,ugm-3,277,R,ugm-3,6,R,ugm-3,11,R,ugm-3
02-01-2000,14:00,0.7,R,mgm-3,26,R,ugm-3 (GRAV EQ),114,R,ugm-3,55,R,ugm-3,229,R,ugm-3,8,R,ugm-3,11,R,ugm-3
02-01-2000,15:00,0.8,R,mgm-3,25,R,ugm-3 (GRAV EQ),134,R,ugm-3,57,R,ugm-3,262,R,ugm-3,6,R,ugm-3,13,R,ugm-3
02-01-2000,16:00,0.8,R,mgm-3,25,R,ugm-3 (GRAV EQ),123,R,ugm-3,55,R,ugm-3,243,R,ugm-3,4,R,ugm-3,11,R,ugm-3
02-01-2000,17:00,0.8,R,mgm-3,23,R,ugm-3 (GRAV EQ),145,R,ugm-3,57,R,ugm-3,279,R,ugm-3,4,R,ugm-3,11,R,ugm-3
02-01-2000,18:00,0.8,R,mgm-3,17,R,ugm-3 (GRAV EQ),114,R,ugm-3,57,R,ugm-3,231,R,ugm-3,6,R,ugm-3,11,R,ugm-3
02-01-2000,19:00,0.5,R,mgm-3,21,R,ugm-3 (GRAV EQ),78,R,ugm-3,48,R,ugm-3,166,R,ugm-3,8,R,ugm-3,11,R,ugm-3
02-01-2000,20:00,0.5,R,mgm-3,14,R,ugm-3 (GRAV EQ),61,R,ugm-3,42,R,ugm-3,136,R,ugm-3,12,R,ugm-3,11,R,ugm-3
02-01-2000,21:00,0.6,R,mgm-3,17,R,ugm-3 (GRAV EQ),59,R,ugm-3,38,R,ugm-3,128,R,ugm-3,10,R,ugm-3,11,R,ugm-3
02-01-2000,22:00,0.3,R,mgm-3,14,R,ugm-3 (GRAV EQ),41,R,ugm-3,32,R,ugm-3,96,R,ugm-3,14,R,ugm-3,8,R,ugm-3
02-01-2000,23:00,0.2,R,mgm-3,13,R,ugm-3 (GRAV EQ),25,R,ugm-3,25,R,ugm-3,63,R,ugm-3,24,R,ugm-3,8,R,ugm-3
02-01-2000,24:00,0.1,R,mgm-3,12,R,ugm-3 (GRAV EQ),14,R,ugm-3,15,R,ugm-3,36,R,ugm-3,36,R,ugm-3,8,R,ugm-3
03-01-2000,01:00,0.2,R,mgm-3,5,R,ugm-3 (GRAV EQ),9,R,ugm-3,13,R,ugm-3,27,R,ugm-3,46,R,ugm-3,8,R,ugm-3
03-01-2000,02:00,0.1,R,mgm-3,9,R,ugm-3 (GRAV EQ),4,R,ugm-3,8,R,ugm-3,13,R,ugm-3,56,R,ugm-3,5,R,ugm-3
03-01-2000,03:00,0.1,R,mgm-3,8,R,ugm-3 (GRAV EQ),3,R,ugm-3,6,R,ugm-3,10,R,ugm-3,60,R,ugm-3,5,R,ugm-3
03-01-2000,04:00,0.1,R,mgm-3,9,R,ugm-3 (GRAV EQ),1,R,ugm-3,2,R,ugm-3,4,R,ugm-3,60,R,ugm-3,8,R,ugm-3
03-01-2000,05:00,0.1,R,mgm-3,8,R,ugm-3 (GRAV EQ),4,R,ugm-3,6,R,ugm-3,11,R,ugm-3,54,R,ugm-3,8,R,ugm-3
03-01-2000,06:00,0.2,R,mgm-3,10,R,ugm-3 (GRAV EQ),6,R,ugm-3,13,R,ugm-3,23,R,ugm-3,46,R,ugm-3,8,R,ugm-3
03-01-2000,07:00,0.2,R,mgm-3,10,R,ugm-3 (GRAV EQ),13,R,ugm-3,23,R,ugm-3,42,R,ugm-3,38,R,ugm-3,8,R,ugm-3
03-01-2000,08:00,0.2,R,mgm-3,8,R,ugm-3 (GRAV EQ),15,R,ugm-3,25,R,ugm-3,48,R,ugm-3,38,R,ugm-3,8,R,ugm-3
03-01-2000,09:00,0.2,R,mgm-3,13,R,ugm-3 (GRAV EQ),18,R,ugm-3,25,R,ugm-3,52,R,ugm-3,34,R,ugm-3,5,R,ugm-3
03-01-2000,10:00,0.3,R,mgm-3,12,R,ugm-3 (GRAV EQ),21,R,ugm-3,27,R,ugm-3,59,R,ugm-3,34,R,ugm-3,8,R,ugm-3
03-01-2000,11:00,0.3,R,mgm-3,10,R,ugm-3 (GRAV EQ),28,R,ugm-3,31,R,ugm-3,73,R,ugm-3,30,R,ugm-3,8,R,ugm-3
03-01-2000,12:00,0.3,R,mgm-3,10,R,ugm-3 (GRAV EQ),35,R,ugm-3,34,R,ugm-3,88,R,ugm-3,26,R,ugm-3,8,R,ugm-3
03-01-2000,13:00,0.5,R,mgm-3,10,R,ugm-3 (GRAV EQ),50,R,ugm-3,42,R,ugm-3,118,R,ugm-3,18,R,ugm-3,8,R,ugm-3
03-01-2000,14:00,0.6,R,mgm-3,10,R,ugm-3 (GRAV EQ),58,R,ugm-3,42,R,ugm-3,130,R,ugm-3,16,R,ugm-3,11,R,ugm-3
03-01-2000,15:00,0.6,R,mgm-3,14,R,ugm-3 (GRAV EQ),53,R,ugm-3,42,R,ugm-3,122,R,ugm-3,14,R,ugm-3,11,R,ugm-3
03-01-2000,16:00,0.2,R,mgm-3,7,R,ugm-3 (GRAV EQ),4,R,ugm-3,19,R,ugm-3,25,R,ugm-3,44,R,ugm-3,8,R,ugm-3
03-01-2000,17:00,0.3,R,mgm-3,5,R,ugm-3 (GRAV EQ),5,R,ugm-3,25,R,ugm-3,32,R,ugm-3,38,R,ugm-3,8,R,ugm-3
03-01-2000,18:00,0.3,R,mgm-3,12,R,ugm-3 (GRAV EQ),3,R,ugm-3,27,R,ugm-3,31,R,ugm-3,34,R,ugm-3,11,R,ugm-3
03-01-2000,19:00,0.3,R,mgm-3,12,R,ugm-3 (GRAV EQ),3,R,ugm-3,31,R,ugm-3,34,R,ugm-3,32,R,ugm-3,16,R,ugm-3
03-01-2000,20:00,0.3,R,mgm-3,5,R,ugm-3 (GRAV EQ),0,R,ugm-3,19,R,ugm-3,19,R,ugm-3,50,R,ugm-3,8,R,ugm-3
03-01-2000,21:00,0.3,R,mgm-3,3,R,ugm-3 (GRAV EQ),0,R,ugm-3,31,R,ugm-3,31,R,ugm-3,36,R,ugm-3,11,R,ugm-3
03-01-2000,22:00,0.3,R,mgm-3,3,R,ugm-3 (GRAV EQ),4,R,ugm-3,32,R,ugm-3,38,R,ugm-3,32,R,ugm-3,8,R,ugm-3
03-01-2000,23:00,0.8,R,mgm-3,10,R,ugm-3 (GRAV EQ),91,R,ugm-3,65,R,ugm-3,204,R,ugm-3,6,R,ugm-3,8,R,ugm-3
03-01-2000,24:00,0.5,R,mgm-3,12,R,ugm-3 (GRAV EQ),31,R,ugm-3,59,R,ugm-3,107,R,ugm-3,6,R,ugm-3,8,R,ugm-3
04-01-2000,01:00,0.6,R,mgm-3,8,R,ugm-3 (GRAV EQ),18,R,ugm-3,61,R,ugm-3,88,R,ugm-3,2,R,ugm-3,8,R,ugm-3
04-01-2000,02:00,0.5,R,mgm-3,12,R,ugm-3 (GRAV EQ),15,R,ugm-3,55,R,ugm-3,78,R,ugm-3,2,R,ugm-3,24,R,ugm-3
04-01-2000,03:00,0.5,R,mgm-3,5,R,ugm-3 (GRAV EQ),1,R,ugm-3,32,R,ugm-3,34,R,ugm-3,24,R,ugm-3,8,R,ugm-3
04-01-2000,04:00,0.3,R,mgm-3,5,R,ugm-3 (GRAV EQ),0,R,ugm-3,29,R,ugm-3,29,R,ugm-3,22,R,ugm-3,8,R,ugm-3
04-01-2000,05:00,0.3,R,mgm-3,4,R,ugm-3 (GRAV EQ),1,R,ugm-3,31,R,ugm-3,32,R,ugm-3,14,R,ugm-3,8,R,ugm-3
04-01-2000,06:00,0.5,R,mgm-3,7,R,ugm-3 (GRAV EQ),30,R,ugm-3,46,R,ugm-3,92,R,ugm-3,6,R,ugm-3,8,R,ugm-3
04-01-2000,07:00,0.9,R,mgm-3,17,R,ugm-3 (GRAV EQ),170,R,ugm-3,78,R,ugm-3,338,R,ugm-3,4,R,ugm-3,19,R,ugm-3
04-01-2000,08:00,1.0,R,mgm-3,22,R,ugm-3 (GRAV EQ),171,R,ugm-3,69,R,ugm-3,330,R,ugm-3,4,R,ugm-3,16,R,ugm-3
04-01-2000,09:00,1.0,R,mgm-3,20,R,ugm-3 (GRAV EQ),149,R,ugm-3,65,R,ugm-3,292,R,ugm-3,4,R,ugm-3,13,R,ugm-3
04-01-2000,10:00,1.0,R,mgm-3,23,R,ugm-3 (GRAV EQ),176,R,ugm-3,63,R,ugm-3,332,R,ugm-3,4,R,ugm-3,13,R,ugm-3
04-01-2000,11:00,0.8,R,mgm-3,21,R,ugm-3 (GRAV EQ),145,R,ugm-3,57,R,ugm-3,279,R,ugm-3,2,R,ugm-3,13,R,ugm-3
04-01-2000,12:00,0.5,R,mgm-3,10,R,ugm-3 (GRAV EQ),90,R,ugm-3,61,R,ugm-3,199,R,ugm-3,12,R,ugm-3,8,R,ugm-3
04-01-2000,13:00,0.6,R,mgm-3,10,R,ugm-3 (GRAV EQ),91,R,ugm-3,63,R,ugm-3,202,R,ugm-3,12,R,ugm-3,11,R,ugm-3
04-01-2000,14:00,0.7,R,mgm-3,18,R,ugm-3 (GRAV EQ),89,R,ugm-3,61,R,ugm-3,197,R,ugm-3,14,R,ugm-3,8,R,ugm-3
04-01-2000,15:00,0.7,R,mgm-3,17,R,ugm-3 (GRAV EQ),59,R,ugm-3,53,R,ugm-3,143,R,ugm-3,20,R,ugm-3,11,R,ugm-3
04-01-2000,16:00,0.5,R,mgm-3,18,R,ugm-3 (GRAV EQ),48,R,ugm-3,48,R,ugm-3,120,R,ugm-3,24,R,ugm-3,8,R,ugm-3
04-01-2000,17:00,0.3,R,mgm-3,4,R,ugm-3 (GRAV EQ),8,R,ugm-3,27,R,ugm-3,38,R,ugm-3,40,R,ugm-3,13,R,ugm-3
04-01-2000,18:00,1.4,R,mgm-3,27,R,ugm-3 (GRAV EQ),210,R,ugm-3,73,R,ugm-3,393,R,ugm-3,6,R,ugm-3,35,R,ugm-3
04-01-2000,19:00,1.5,R,mgm-3,34,R,ugm-3 (GRAV EQ),196,R,ugm-3,74,R,ugm-3,374,R,ugm-3,4,R,ugm-3,11,R,ugm-3
04-01-2000,20:00,1.0,R,mgm-3,29,R,ugm-3 (GRAV EQ),143,R,ugm-3,71,R,ugm-3,288,R,ugm-3,2,R,ugm-3,8,R,ugm-3
04-01-2000,21:00,0.9,R,mgm-3,30,R,ugm-3 (GRAV EQ),155,R,ugm-3,67,R,ugm-3,304,R,ugm-3,2,R,ugm-3,11,R,ugm-3
04-01-2000,22:00,0.9,R,mgm-3,29,R,ugm-3 (GRAV EQ),139,R,ugm-3,65,R,ugm-3,277,R,ugm-3,4,R,ugm-3,11,R,ugm-3
04-01-2000,23:00,0.8,R,mgm-3,25,R,ugm-3 (GRAV EQ),111,R,ugm-3,57,R,ugm-3,227,R,ugm-3,2,R,ugm-3,11,R,ugm-3
04-01-2000,24:00,0.7,R,mgm-3,21,R,ugm-3 (GRAV EQ),94,R,ugm-3,55,R,ugm-3,199,R,ugm-3,2,R,ugm-3,8,R,ugm-3
05-01-2000,01:00,0.7,R,mgm-3,18,R,ugm-3 (GRAV EQ),48,R,ugm-3,48,R,ugm-3,120,R,ugm-3,4,R,ugm-3,8,R,ugm-3
05-01-2000,02:00,0.6,R,mgm-3,16,R,ugm-3 (GRAV EQ),46,R,ugm-3,50,R,ugm-3,120,R,ugm-3,2,R,ugm-3,8,R,ugm-3
05-01-2000,03:00,0.6,R,mgm-3,17,R,ugm-3 (GRAV EQ),49,R,ugm-3,48,R,ugm-3,122,R,ugm-3,2,R,ugm-3,5,R,ugm-3
05-01-2000,04:00,0.6,R,mgm-3,14,R,ugm-3 (GRAV EQ),48,R,ugm-3,50,R,ugm-3,122,R,ugm-3,4,R,ugm-3,11,R,ugm-3
05-01-2000,05:00,0.6,R,mgm-3,18,R,ugm-3 (GRAV EQ),49,R,ugm-3,53,R,ugm-3,128,R,ugm-3,4,R,ugm-3,8,R,ugm-3
05-01-2000,06:00,0.7,R,mgm-3,23,R,ugm-3 (GRAV EQ),69,R,ugm-3,63,R,ugm-3,168,R,ugm-3,4,R,ugm-3,11,R,ugm-3
05-01-2000,07:00,1.0,R,mgm-3,30,R,ugm-3 (GRAV EQ),141,R,ugm-3,84,R,ugm-3,300,R,ugm-3,2,R,ugm-3,11,R,ugm-3
05-01-2000,08:00,1.2,R,mgm-3,35,R,ugm-3 (GRAV EQ),151,R,ugm-3,88,R,ugm-3,319,R,ugm-3,4,R,ugm-3,13,R,ugm-3
05-01-2000,09:00,1.4,R,mgm-3,34,R,ugm-3 (GRAV EQ),163,R,ugm-3,86,R,ugm-3,334,R,ugm-3,4,R,ugm-3,13,R,ugm-3
05-01-2000,10:00,0.9,R,mgm-3,40,R,ugm-3 (GRAV EQ),133,R,ugm-3,76,R,ugm-3,279,R,ugm-3,8,R,ugm-3,13,R,ugm-3
05-01-2000,11:00,0.7,R,mgm-3,31,R,ugm-3 (GRAV EQ),63,R,ugm-3,57,R,ugm-3,153,R,ugm-3,16,R,ugm-3,8,R,ugm-3
05-01-2000,12:00,0.7,R,mgm-3,34,R,ugm-3 (GRAV EQ),73,R,ugm-3,63,R,ugm-3,174,R,ugm-3,14,R,ugm-3,13,R,ugm-3
05-01-2000,13:00,0.7,R,mgm-3,29,R,ugm-3 (GRAV EQ),66,R,ugm-3,57,R,ugm-3,159,R,ugm-3,16,R,ugm-3,8,R,ugm-3
05-01-2000,14:00,0.7,R,mgm-3,30,R,ugm-3 (GRAV EQ),64,R,ugm-3,55,R,ugm-3,153,R,ugm-3,16,R,ugm-3,8,R,ugm-3
05-01-2000,15:00,0.6,R,mgm-3,23,R,ugm-3 (GRAV EQ),66,R,ugm-3,57,R,ugm-3,159,R,ugm-3,18,R,ugm-3,8,R,ugm-3
05-01-2000,16:00,0.7,R,mgm-3,26,R,ugm-3 (GRAV EQ),66,R,ugm-3,61,R,ugm-3,162,R,ugm-3,14,R,ugm-3,11,R,ugm-3
05-01-2000,17:00,0.8,R,mgm-3,29,R,ugm-3 (GRAV EQ),73,R,ugm-3,63,R,ugm-3,174,R,ugm-3,12,R,ugm-3,11,R,ugm-3
05-01-2000,18:00,0.8,R,mgm-3,29,R,ugm-3 (GRAV EQ),63,R,ugm-3,59,R,ugm-3,155,R,ugm-3,14,R,ugm-3,11,R,ugm-3
05-01-2000,19:00,0.8,R,mgm-3,29,R,ugm-3 (GRAV EQ),54,R,ugm-3,53,R,ugm-3,136,R,ugm-3,16,R,ugm-3,8,R,ugm-3
05-01-2000,20:00,0.6,R,mgm-3,25,R,ugm-3 (GRAV EQ),28,R,ugm-3,40,R,ugm-3,82,R,ugm-3,30,R,ugm-3,5,R,ugm-3
05-01-2000,21:00,0.6,R,mgm-3,25,R,ugm-3 (GRAV EQ),25,R,ugm-3,38,R,ugm-3,76,R,ugm-3,28,R,ugm-3,8,R,ugm-3
05-01-2000,22:00,0.6,R,mgm-3,27,R,ugm-3 (GRAV EQ),18,R,ugm-3,29,R,ugm-3,55,R,ugm-3,32,R,ugm-3,8,R,ugm-3
05-01-2000,23:00,0.5,R,mgm-3,26,R,ugm-3 (GRAV EQ),15,R,ugm-3,25,R,ugm-3,48,R,ugm-3,34,R,ugm-3,8,R,ugm-3
05-01-2000,24:00,0.5,R,mgm-3,22,R,ugm-3 (GRAV EQ),11,R,ugm-3,21,R,ugm-3,38,R,ugm-3,34,R,ugm-3,8,R,ugm-3
06-01-2000,01:00,0.1,R,mgm-3,20,R,ugm-3 (GRAV EQ),9,R,ugm-3,15,R,ugm-3,29,R,ugm-3,42,R,ugm-3,5,R,ugm-3
06-01-2000,02:00,0.2,R,mgm-3,21,R,ugm-3 (GRAV EQ),6,R,ugm-3,13,R,ugm-3,23,R,ugm-3,44,R,ugm-3,3,R,ugm-3
06-01-2000,03:00,0.1,R,mgm-3,20,R,ugm-3 (GRAV EQ),5,R,ugm-3,10,R,ugm-3,17,R,ugm-3,48,R,ugm-3,3,R,ugm-3
06-01-2000,04:00,0.2,R,mgm-3,23,R,ugm-3 (GRAV EQ),5,R,ugm-3,11,R,ugm-3,19,R,ugm-3,46,R,ugm-3,5,R,ugm-3
06-01-2000,05:00,0.2,R,mgm-3,16,R,ugm-3 (GRAV EQ),9,R,ugm-3,23,R,ugm-3,36,R,ugm-3,40,R,ugm-3,3,R,ugm-3
06-01-2000,06:00,0.2,R,mgm-3,16,R,ugm-3 (GRAV EQ),28,R,ugm-3,44,R,ugm-3,86,R,ugm-3,28,R,ugm-3,5,R,ugm-3
06-01-2000,07:00,0.5,R,mgm-3,26,R,ugm-3 (GRAV EQ),86,R,ugm-3,63,R,ugm-3,195,R,ugm-3,12,R,ugm-3,5,R,ugm-3
06-01-2000,08:00,0.6,R,mgm-3,26,R,ugm-3 (GRAV EQ),105,R,ugm-3,65,R,ugm-3,225,R,ugm-3,8,R,ugm-3,5,R,ugm-3
06-01-2000,09:00,0.9,R,mgm-3,29,R,ugm-3 (GRAV EQ),124,R,ugm-3,69,R,ugm-3,258,R,ugm-3,4,R,ugm-3,8,R,ugm-3
06-01-2000,10:00,0.7,R,mgm-3,33,R,ugm-3 (GRAV EQ),134,R,ugm-3,69,R,ugm-3,273,R,ugm-3,4,R,ugm-3,8,R,ugm-3
06-01-2000,11:00,0.6,R,mgm-3,35,R,ugm-3 (GRAV EQ),113,R,ugm-3,65,R,ugm-3,237,R,ugm-3,6,R,ugm-3,8,R,ugm-3
06-01-2000,12:00,0.5,R,mgm-3,33,R,ugm-3 (GRAV EQ),86,R,ugm-3,61,R,ugm-3,193,R,ugm-3,10,R,ugm-3,8,R,ugm-3
06-01-2000,13:00,0.3,R,mgm-3,36,R,ugm-3 (GRAV EQ),78,R,ugm-3,59,R,ugm-3,178,R,ugm-3,14,R,ugm-3,8,R,ugm-3
06-01-2000,14:00,0.5,R,mgm-3,42,R,ugm-3 (GRAV EQ),78,R,ugm-3,59,R,ugm-3,178,R,ugm-3,12,R,ugm-3,5,R,ugm-3
06-01-2000,15:00,0.6,R,mgm-3,40,R,ugm-3 (GRAV EQ),91,R,ugm-3,63,R,ugm-3,202,R,ugm-3,8,R,ugm-3,5,R,ugm-3
06-01-2000,16:00,0.6,R,mgm-3,43,R,ugm-3 (GRAV EQ),116,R,ugm-3,67,R,ugm-3,244,R,ugm-3,4,R,ugm-3,8,R,ugm-3
06-01-2000,17:00,0.9,R,mgm-3,43,R,ugm-3 (GRAV EQ),175,R,ugm-3,73,R,ugm-3,340,R,ugm-3,2,R,ugm-3,8,R,ugm-3
06-01-2000,18:00,1.4,R,mgm-3,38,R,ugm-3 (GRAV EQ),249,R,ugm-3,76,R,ugm-3,456,R,ugm-3,2,R,ugm-3,8,R,ugm-3
06-01-2000,19:00,1.3,R,mgm-3,42,R,ugm-3 (GRAV EQ),216,R,ugm-3,73,R,ugm-3,403,R,ugm-3,2,R,ugm-3,8,R,ugm-3
06-01-2000,20:00,0.9,R,mgm-3,35,R,ugm-3 (GRAV EQ),145,R,ugm-3,67,R,ugm-3,288,R,ugm-3,2,R,ugm-3,8,R,ugm-3
06-01-2000,21:00,0.6,R,mgm-3,27,R,ugm-3 (GRAV EQ),86,R,ugm-3,59,R,ugm-3,191,R,ugm-3,2,R,ugm-3,8,R,ugm-3
06-01-2000,22:00,0.7,R,mgm-3,26,R,ugm-3 (GRAV EQ),76,R,ugm-3,59,R,ugm-3,176,R,ugm-3,2,R,ugm-3,5,R,ugm-3
06-01-2000,23:00,1.0,R,mgm-3,30,R,ugm-3 (GRAV EQ),178,R,ugm-3,61,R,ugm-3,332,R,ugm-3,2,R,ugm-3,11,R,ugm-3
06-01-2000,24:00,0.8,R,mgm-3,22,R,ugm-3 (GRAV EQ),148,R,ugm-3,55,R,ugm-3,281,R,ugm-3,0,R,ugm-3,8,R,ugm-3
07-01-2000,01:00,0.6,R,mgm-3,22,R,ugm-3 (GRAV EQ),153,R,ugm-3,57,R,ugm-3,290,R,ugm-3,2,R,ugm-3,8,R,ugm-3
07-01-2000,02:00,0.3,R,mgm-3,17,R,ugm-3 (GRAV EQ),60,R,ugm-3,52,R,ugm-3,143,R,ugm-3,2,R,ugm-3,5,R,ugm-3
07-01-2000,03:00,0.2,R,mgm-3,17,R,ugm-3 (GRAV EQ),39,R,ugm-3,46,R,ugm-3,105,R,ugm-3,6,R,ugm-3,5,R,ugm-3
07-01-2000,04:00,0.1,R,mgm-3,17,R,ugm-3 (GRAV EQ),25,R,ugm-3,38,R,ugm-3,76,R,ugm-3,10,R,ugm-3,3,R,ugm-3
07-01-2000,05:00,0.2,R,mgm-3,21,R,ugm-3 (GRAV EQ),51,R,ugm-3,50,R,ugm-3,128,R,ugm-3,4,R,ugm-3,5,R,ugm-3
07-01-2000,06:00,0.3,R,mgm-3,22,R,ugm-3 (GRAV EQ),73,R,ugm-3,48,R,ugm-3,159,R,ugm-3,6,R,ugm-3,5,R,ugm-3
07-01-2000,07:00,0.5,R,mgm-3,29,R,ugm-3 (GRAV EQ),126,R,ugm-3,63,R,ugm-3,256,R,ugm-3,4,R,ugm-3,8,R,ugm-3
07-01-2000,08:00,0.9,R,mgm-3,38,R,ugm-3 (GRAV EQ),166,R,ugm-3,80,R,ugm-3,334,R,ugm-3,6,R,ugm-3,11,R,ugm-3
07-01-2000,09:00,1.0,R,mgm-3,35,R,ugm-3 (GRAV EQ),181,R,ugm-3,76,R,ugm-3,353,R,ugm-3,4,R,ugm-3,11,R,ugm-3
07-01-2000,10:00,0.8,R,mgm-3,40,R,ugm-3 (GRAV EQ),134,R,ugm-3,71,R,ugm-3,275,R,ugm-3,6,R,ugm-3,11,R,ugm-3
07-01-2000,11:00,0.5,R,mgm-3,42,R,ugm-3 (GRAV EQ),105,R,ugm-3,63,R,ugm-3,223,R,ugm-3,10,R,ugm-3,11,R,ugm-3
07-01-2000,12:00,0.3,R,mgm-3,31,R,ugm-3 (GRAV EQ),71,R,ugm-3,59,R,ugm-3,168,R,ugm-3,16,R,ugm-3,11,R,ugm-3
07-01-2000,13:00,0.3,R,mgm-3,29,R,ugm-3 (GRAV EQ),76,R,ugm-3,61,R,ugm-3,178,R,ugm-3,14,R,ugm-3,8,R,ugm-3
07-01-2000,14:00,0.2,R,mgm-3,33,R,ugm-3 (GRAV EQ),60,R,ugm-3,55,R,ugm-3,147,R,ugm-3,22,R,ugm-3,8,R,ugm-3
07-01-2000,15:00,0.3,R,mgm-3,33,R,ugm-3 (GRAV EQ),74,R,ugm-3,59,R,ugm-3,172,R,ugm-3,16,R,ugm-3,8,R,ugm-3
07-01-2000,16:00,0.3,R,mgm-3,30,R,ugm-3 (GRAV EQ),58,R,ugm-3,55,R,ugm-3,143,R,ugm-3,20,R,ugm-3,8,R,ugm-3
07-01-2000,17:00,0.3,R,mgm-3,31,R,ugm-3 (GRAV EQ),60,R,ugm-3,57,R,ugm-3,149,R,ugm-3,18,R,ugm-3,8,R,ugm-3
07-01-2000,18:00,0.5,R,mgm-3,27,R,ugm-3 (GRAV EQ),53,R,ugm-3,53,R,ugm-3,134,R,ugm-3,20,R,ugm-3,8,R,ugm-3
07-01-2000,19:00,0.3,R,mgm-3,27,R,ugm-3 (GRAV EQ),48,R,ugm-3,52,R,ugm-3,124,R,ugm-3,20,R,ugm-3,8,R,ugm-3
07-01-2000,20:00,0.3,R,mgm-3,27,R,ugm-3 (GRAV EQ),41,R,ugm-3,48,R,ugm-3,111,R,ugm-3,24,R,ugm-3,5,R,ugm-3
07-01-2000,21:00,0.2,R,mgm-3,26,R,ugm-3 (GRAV EQ),35,R,ugm-3,44,R,ugm-3,97,R,ugm-3,26,R,ugm-3,8,R,ugm-3
07-01-2000,22:00,0.2,R,mgm-3,25,R,ugm-3 (GRAV EQ),25,R,ugm-3,40,R,ugm-3,78,R,ugm-3,34,R,ugm-3,8,R,ugm-3
07-01-2000,23:00,0.1,R,mgm-3,25,R,ugm-3 (GRAV EQ),21,R,ugm-3,40,R,ugm-3,73,R,ugm-3,34,R,ugm-3,8,R,ugm-3
07-01-2000,24:00,0.1,R,mgm-3,22,R,ugm-3 (GRAV EQ),11,R,ugm-3,25,R,ugm-3,42,R,ugm-3,48,R,ugm-3,5,R,ugm-3
08-01-2000,01:00,0.1,R,mgm-3,21,R,ugm-3 (GRAV EQ),9,R,ugm-3,19,R,ugm-3,32,R,ugm-3,50,R,ugm-3,8,R,ugm-3
08-01-2000,02:00,0.1,R,mgm-3,14,R,ugm-3 (GRAV EQ),8,R,ugm-3,19,R,ugm-3,31,R,ugm-3,48,R,ugm-3,8,R,ugm-3
08-01-2000,03:00,0.2,R,mgm-3,12,R,ugm-3 (GRAV EQ),5,R,ugm-3,17,R,ugm-3,25,R,ugm-3,46,R,ugm-3,5,R,ugm-3
08-01-2000,04:00,0.1,R,mgm-3,9,R,ugm-3 (GRAV EQ),1,R,ugm-3,11,R,ugm-3,13,R,ugm-3,58,R,ugm-3,8,R,ugm-3
08-01-2000,05:00,0.1,R,mgm-3,13,R,ugm-3 (GRAV EQ),19,R,ugm-3,42,R,ugm-3,71,R,ugm-3,24,R,ugm-3,8,R,ugm-3
08-01-2000,06:00,0.2,R,mgm-3,18,R,ugm-3 (GRAV EQ),35,R,ugm-3,50,R,ugm-3,103,R,ugm-3,16,R,ugm-3,5,R,ugm-3
08-01-2000,07:00,0.5,R,mgm-3,21,R,ugm-3 (GRAV EQ),54,R,ugm-3,53,R,ugm-3,136,R,ugm-3,12,R,ugm-3,8,R,ugm-3
08-01-2000,08:00,0.6,R,mgm-3,29,R,ugm-3 (GRAV EQ),121,R,ugm-3,65,R,ugm-3,250,R,ugm-3,4,R,ugm-3,8,R,ugm-3
08-01-2000,09:00,0.8,R,mgm-3,34,R,ugm-3 (GRAV EQ),135,R,ugm-3,65,R,ugm-3,271,R,ugm-3,4,R,ugm-3,8,R,ugm-3
08-01-2000,10:00,0.8,R,mgm-3,40,R,ugm-3 (GRAV EQ),146,R,ugm-3,63,R,ugm-3,287,R,ugm-3,6,R,ugm-3,11,R,ugm-3
08-01-2000,11:00,0.8,R,mgm-3,36,R,ugm-3 (GRAV EQ),135,R,ugm-3,61,R,ugm-3,267,R,ugm-3,6,R,ugm-3,11,R,ugm-3
08-01-2000,12:00,0.7,R,mgm-3,42,R,ugm-3 (GRAV EQ),93,R,ugm-3,57,R,ugm-3,199,R,ugm-3,12,R,ugm-3,11,R,ugm-3
08-01-2000,13:00,0.5,R,mgm-3,33,R,ugm-3 (GRAV EQ),59,R,ugm-3,52,R,ugm-3,141,R,ugm-3,20,R,ugm-3,11,R,ugm-3
08-01-2000,14:00,0.5,R,mgm-3,30,R,ugm-3 (GRAV EQ),64,R,ugm-3,52,R,ugm-3,149,R,ugm-3,20,R,ugm-3,8,R,ugm-3
08-01-2000,15:00,0.5,R,mgm-3,31,R,ugm-3 (GRAV EQ),73,R,ugm-3,55,R,ugm-3,166,R,ugm-3,16,R,ugm-3,8,R,ugm-3
08-01-2000,16:00,0.6,R,mgm-3,30,R,ugm-3 (GRAV EQ),81,R,ugm-3,53,R,ugm-3,178,R,ugm-3,12,R,ugm-3,8,R,ugm-3
08-01-2000,17:00,0.8,R,mgm-3,31,R,ugm-3 (GRAV EQ),130,R,ugm-3,63,R,ugm-3,262,R,ugm-3,6,R,ugm-3,8,R,ugm-3
08-01-2000,18:00,0.7,R,mgm-3,33,R,ugm-3 (GRAV EQ),129,R,ugm-3,63,R,ugm-3,260,R,ugm-3,6,R,ugm-3,8,R,ugm-3
08-01-2000,19:00,0.7,R,mgm-3,33,R,ugm-3 (GRAV EQ),109,R,ugm-3,61,R,ugm-3,227,R,ugm-3,4,R,ugm-3,11,R,ugm-3
08-01-2000,20:00,0.7,R,mgm-3,30,R,ugm-3 (GRAV EQ),111,R,ugm-3,59,R,ugm-3,229,R,ugm-3,4,R,ugm-3,8,R,ugm-3
08-01-2000,21:00,0.8,R,mgm-3,27,R,ugm-3 (GRAV EQ),103,R,ugm-3,57,R,ugm-3,214,R,ugm-3,4,R,ugm-3,8,R,ugm-3
08-01-2000,22:00,0.7,R,mgm-3,23,R,ugm-3 (GRAV EQ),90,R,ugm-3,55,R,ugm-3,193,R,ugm-3,2,R,ugm-3,8,R,ugm-3
08-01-2000,23:00,0.5,R,mgm-3,17,R,ugm-3 (GRAV EQ),44,R,ugm-3,50,R,ugm-3,117,R,ugm-3,4,R,ugm-3,8,R,ugm-3
08-01-2000,24:00,0.6,R,mgm-3,20,R,ugm-3 (GRAV EQ),65,R,ugm-3,50,R,ugm-3,149,R,ugm-3,4,R,ugm-3,8,R,ugm-3
09-01-2000,01:00,0.3,R,mgm-3,16,R,ugm-3 (GRAV EQ),23,R,ugm-3,36,R,ugm-3,71,R,ugm-3,18,R,ugm-3,3,R,ugm-3
09-01-2000,02:00,0.2,R,mgm-3,13,R,ugm-3 (GRAV EQ),6,R,ugm-3,36,R,ugm-3,46,R,ugm-3,14,R,ugm-3,3,R,ugm-3
09-01-2000,03:00,0.6,R,mgm-3,16,R,ugm-3 (GRAV EQ),46,R,ugm-3,42,R,ugm-3,113,R,ugm-3,6,R,ugm-3,3,R,ugm-3
09-01-2000,04:00,0.7,R,mgm-3,21,R,ugm-3 (GRAV EQ),129,R,ugm-3,50,R,ugm-3,246,R,ugm-3,4,R,ugm-3,5,R,ugm-3
09-01-2000,05:00,0.5,R,mgm-3,20,R,ugm-3 (GRAV EQ),50,R,ugm-3,42,R,ugm-3,118,R,ugm-3,4,R,ugm-3,5,R,ugm-3
09-01-2000,06:00,0.8,R,mgm-3,20,R,ugm-3 (GRAV EQ),141,R,ugm-3,48,R,ugm-3,264,R,ugm-3,4,R,ugm-3,8,R,ugm-3
09-01-2000,07:00,1.0,R,mgm-3,27,R,ugm-3 (GRAV EQ),208,R,ugm-3,48,R,ugm-3,365,R,ugm-3,4,R,ugm-3,8,R,ugm-3
09-01-2000,08:00,1.3,R,mgm-3,27,R,ugm-3 (GRAV EQ),241,R,ugm-3,53,R,ugm-3,422,R,ugm-3,4,R,ugm-3,8,R,ugm-3
09-01-2000,09:00,1.6,R,mgm-3,36,R,ugm-3 (GRAV EQ),303,R,ugm-3,52,R,ugm-3,514,R,ugm-3,4,R,ugm-3,8,R,ugm-3
09-01-2000,10:00,1.5,R,mgm-3,36,R,ugm-3 (GRAV EQ),126,R,ugm-3,52,R,ugm-3,244,R,ugm-3,6,R,ugm-3,8,R,ugm-3
09-01-2000,11:00,0.7,R,mgm-3,22,R,ugm-3 (GRAV EQ),31,R,ugm-3,40,R,ugm-3,88,R,ugm-3,16,R,ugm-3,8,R,ugm-3
09-01-2000,12:00,0.5,R,mgm-3,20,R,ugm-3 (GRAV EQ),19,R,ugm-3,38,R,ugm-3,67,R,ugm-3,20,R,ugm-3,8,R,ugm-3
09-01-2000,13:00,0.5,R,mgm-3,25,R,ugm-3 (GRAV EQ),19,R,ugm-3,38,R,ugm-3,67,R,ugm-3,24,R,ugm-3,8,R,ugm-3
09-01-2000,14:00,0.5,R,mgm-3,22,R,ugm-3 (GRAV EQ),10,R,ugm-3,31,R,ugm-3,46,R,ugm-3,34,R,ugm-3,8,R,ugm-3
09-01-2000,15:00,0.3,R,mgm-3,20,R,ugm-3 (GRAV EQ),8,R,ugm-3,23,R,ugm-3,34,R,ugm-3,44,R,ugm-3,5,R,ugm-3
09-01-2000,16:00,0.5,R,mgm-3,18,R,ugm-3 (GRAV EQ),9,R,ugm-3,31,R,ugm-3,44,R,ugm-3,34,R,ugm-3,8,R,ugm-3
09-01-2000,17:00,0.6,R,mgm-3,27,R,ugm-3 (GRAV EQ),26,R,ugm-3,57,R,ugm-3,97,R,ugm-3,6,R,ugm-3,8,R,ugm-3
09-01-2000,18:00,1.4,R,mgm-3,42,R,ugm-3 (GRAV EQ),58,R,ugm-3,65,R,ugm-3,153,R,ugm-3,8,R,ugm-3,8,R,ugm-3
09-01-2000,19:00,1.4,R,mgm-3,40,R,ugm-3 (GRAV EQ),86,R,ugm-3,63,R,ugm-3,195,R,ugm-3,8,R,ugm-3,8,R,ugm-3
09-01-2000,20:00,2.1,R,mgm-3,52,R,ugm-3 (GRAV EQ),153,R,ugm-3,65,R,ugm-3,298,R,ugm-3,8,R,ugm-3,11,R,ugm-3
09-01-2000,21:00,2.2,R,mgm-3,48,R,ugm-3 (GRAV EQ),229,R,ugm-3,65,R,ugm-3,414,R,ugm-3,8,R,ugm-3,13,R,ugm-3
09-01-2000,22:00,3.0,R,mgm-3,61,R,ugm-3 (GRAV EQ),461,R,ugm-3,74,R,ugm-3,779,R,ugm-3,8,R,ugm-3,16,R,ugm-3
09-01-2000,23:00,3.0,R,mgm-3,64,R,ugm-3 (GRAV EQ),399,R,ugm-3,71,R,ugm-3,680,R,ugm-3,8,R,ugm-3,19,R,ugm-3
09-01-2000,24:00,3.0,R,mgm-3,62,R,ugm-3 (GRAV EQ),518,R,ugm-3,71,R,ugm-3,861,R,ugm-3,8,R,ugm-3,19,R,ugm-3
10-01-2000,01:00,3.1,R,mgm-3,59,R,ugm-3 (GRAV EQ),559,R,ugm-3,65,R,ugm-3,919,R,ugm-3,6,R,ugm-3,19,R,ugm-3
10-01-2000,02:00,2.9,R,mgm-3,59,R,ugm-3 (GRAV EQ),418,R,ugm-3,65,R,ugm-3,703,R,ugm-3,8,R,ugm-3,16,R,ugm-3
10-01-2000,03:00,2.1,R,mgm-3,57,R,ugm-3 (GRAV EQ),251,R,ugm-3,55,R,ugm-3,439,R,ugm-3,6,R,ugm-3,16,R,ugm-3
10-01-2000,04:00,2.2,R,mgm-3,56,R,ugm-3 (GRAV EQ),336,R,ugm-3,61,R,ugm-3,575,R,ugm-3,6,R,ugm-3,16,R,ugm-3
10-01-2000,05:00,2.4,R,mgm-3,59,R,ugm-3 (GRAV EQ),420,R,ugm-3,61,R,ugm-3,703,R,ugm-3,6,R,ugm-3,16,R,ugm-3
10-01-2000,06:00,2.9,R,mgm-3,64,R,ugm-3 (GRAV EQ),444,R,ugm-3,69,R,ugm-3,747,R,ugm-3,6,R,ugm-3,16,R,ugm-3
10-01-2000,07:00,3.0,R,mgm-3,56,R,ugm-3 (GRAV EQ),386,R,ugm-3,69,R,ugm-3,659,R,ugm-3,6,R,ugm-3,16,R,ugm-3
10-01-2000,08:00,4.3,R,mgm-3,60,R,ugm-3 (GRAV EQ),476,R,ugm-3,84,R,ugm-3,812,R,ugm-3,6,R,ugm-3,19,R,ugm-3
10-01-2000,09:00,9.4,R,mgm-3,98,R,ugm-3 (GRAV EQ),786,R,ugm-3,105,R,ugm-3,1306,R,ugm-3,12,R,ugm-3,29,R,ugm-3
10-01-2000,10:00,3.1,R,mgm-3,70,R,ugm-3 (GRAV EQ),608,R,ugm-3,92,R,ugm-3,1020,R,ugm-3,6,R,ugm-3,24,R,ugm-3